Tracking 22879 objects as of 21-Apr-2021
HD Live streaming from Space Station
objects crossing your sky now

STARLINK-2394

Track STARLINK-2394 now!
10-day predictions
STARLINK-2394 is classified as:


NORAD ID: 47813
Int'l Code: 2021-018AC
Perigee: 355.9 km
Apogee: 357.7 km
Inclination: 53.0 °
Period: 91.5 minutes
Semi major axis: 6727 km
RCS: Unknown
Launch date: March 11, 2021
Source: United States (US)
Launch site: AIR FORCE EASTERN TEST RANGE (AFETR)
aabbcc
Your satellite tracking list
Your tracking list is empty




NASA's NSSDC Master Catalog

Two Line Element Set (TLE):
1 47813U 21018AC  21110.83335648  .00010502  00000-0  79034-4 0  9995
2 47813  53.0494 346.8238 0001319  84.7552 190.8750 15.73232836  7286
Source of the keplerian elements: AFSPC